Wind_Speed
18 20 20 20 20 20 21 22 21 20 19 18 18 17 16 16 15 14 14 14 14 13 13 13 13 13 14 14 14 14 15 16 16 17 17 17 18 19 20 20 21 21 21
19 20 20 19 19 19 20 21 22 21 20 19 19 18 17 17 16 16 15 15 15 15 14 14 14 15 15 15 15 15 17 18 18 18 18 18 19 19 20 21 21 22 23
21 21 21 20 19 19 20 21 22 22 22 21 20 20 19 18 17 17 16 16 16 16 16 16 16 16 16 16 16 17 18 19 19 19 19 18 19 20 20 21 22 23 24
23 23 22 21 21 21 21 21 22 22 22 22 21 20 20 18 17 17 17 17 17 17 18 18 18 18 18 17 17 17 18 19 19 20 20 20 21 21 22 22 23 24 24
23 23 23 23 22 21 21 21 21 22 22 22 21 20 20 18 18 17 17 18 18 18 18 18 17 17 17 16 16 17 18 19 20 21 21 22 23 23 24 24 25 25 25
24 23 23 23 23 22 21 21 21 22 22 22 22 21 20 20 19 18 18 18 19 19 18 18 18 18 17 17 17 17 19 20 21 22 23 24 26 26 26 26 26 27 27
24 24 24 24 24 24 24 23 23 23 23 23 23 22 22 21 20 19 18 18 19 19 18 18 18 18 18 18 17 18 19 20 21 23 24 25 25 24 24 24 24 25 25
25 24 25 25 25 25 25 25 24 23 23 23 23 23 23 22 21 20 19 19 19 19 18 18 18 18 18 18 18 19 21 23 25 27 27 28 28 26 25 25 25 25 26
26 26 27 26 26 26 26 26 25 24 23 22 23 22 22 23 22 21 20 20 19 18 18 18 19 19 19 19 21 22 24 26 27 29 29 30 29 28 28 27 27 27 28
29 28 28 28 27 27 26 26 25 24 23 22 22 22 23 23 23 23 23 22 21 20 20 20 21 21 22 23 24 24 25 25 26 25 26 26 26 26 27 28 28 29 29
31 30 29 29 28 27 27 26 26 26 25 23 22 22 23 23 24 24 25 25 25 24 24 24 24 25 26 26 26 26 25 25 24 23 24 23 22 23 24 25 26 27 28
33 32 31 30 30 29 28 28 27 27 27 26 24 23 23 23 24 24 25 26 27 27 27 28 29 29 29 29 29 28 27 27 25 24 24 23 22 22 23 25 26 28 30
35 34 33 33 32 31 30 29 29 29 29 29 28 27 26 25 25 25 26 27 28 29 30 32 33 33 33 32 31 30 30 29 28 27 27 26 25 26 27 28 29 30 31
34 35 36 36 35 34 32 31 30 30 31 31 30 29 29 28 28 27 27 28 29 30 31 32 34 35 35 34 33 33 32 31 31 30 30 30 30 30 30 30 31 32 32
33 33 35 37 38 37 35 33 32 32 32 32 32 32 31 31 30 29 28 28 29 30 31 32 33 34 35 35 35 35 33 33 33 32 33 33 33 33 32 33 33 34 34
33 34 34 36 38 38 37 35 34 33 33 32 32 33 33 33 33 32 31 30 30 31 32 33 34 34 34 35 36 36 35 35 34 33 34 34 34 34 34 35 35 35 36
33 34 34 35 37 37 37 37 36 35 34 34 33 34 34 34 34 34 33 32 32 33 33 34 34 35 35 35 36 36 36 35 35 34 34 34 34 35 35 36 36 37 38
34 35 35 34 35 36 37 38 38 37 35 35 34 34 34 34 35 35 35 35 34 35 35 35 35 36 36 36 36 36 37 36 35 35 34 34 35 36 37 38 38 39 40
35 36 36 34 33 35 36 38 39 38 36 34 34 34 34 35 36 37 37 37 36 37 37 37 37 37 36 36 37 37 37 36 36 36 35 36 37 38 40 41 42 43 44
37 38 39 37 35 36 36 36 38 39 38 37 36 36 37 37 38 38 38 38 38 38 38 38 38 38 38 38 38 38 38 38 38 38 39 40 41 42 43 44 45 46 47
38 40 41 40 38 38 36 36 38 40 40 39 38 39 39 39 39 39 39 39 40 40 39 39 40 40 40 40 40 40 41 41 41 42 43 44 45 46 46 47 48 49 50
39 41 43 43 41 40 39 38 40 40 39 39 39 40 40 40 40 40 40 40 41 40 40 40 40 41 41 42 42 43 44 44 45 46 46 47 48 48 49 50 51 52 53
41 42 44 45 46 44 42 42 41 40 40 40 40 40 40 40 40 39 40 40 40 40 40 40 41 41 42 44 45 46 47 47 47 47 48 49 50 50 51 52 53 55 56
45 45 46 47 49 48 46 44 43 42 42 41 41 40 40 39 38 38 39 40 40 40 40 41 42 42 43 45 47 48 49 50 50 49 48 50 50 51 53 54 55 57 59
50 48 48 49 50 50 48 47 46 44 43 43 42 40 39 39 38 38 39 39 39 40 41 42 43 44 45 46 48 49 50 51 51 50 49 50 51 53 54 55 56 58 61
55 53 51 50 50 50 50 49 48 46 44 43 42 41 40 40 39 38 39 39 39 39 40 42 44 45 46 48 49 50 51 51 51 52 52 51 52 52 54 56 59 61 64
Wind_Direction
252 251 252 252 253 255 256 256 257 259 264 268 272 277 274 266 262 262 261 259 255 251 250 253 258 263 268 272 274 277 278 279 279 279 278 275 272 270 271 274 278 280 282
254 252 251 249 250 251 252 253 254 256 259 264 270 276 276 269 265 264 264 263 261 258 257 258 262 266 269 271 274 276 279 281 282 283 281 279 276 274 275 277 279 281 283
255 254 253 252 251 251 252 252 253 254 257 260 265 271 273 269 265 265 265 263 263 263 262 263 266 270 273 276 277 279 282 283 285 284 282 281 279 278 279 280 282 283 284
257 258 259 260 257 254 253 253 254 254 255 257 259 265 268 265 263 263 264 263 263 266 268 270 272 274 276 278 279 280 281 281 281 279 278 277 277 277 277 279 281 282 282
258 260 262 263 261 258 256 256 256 256 256 256 257 261 263 260 258 259 261 263 264 266 270 272 275 276 277 278 279 280 280 280 279 277 277 276 275 275 276 277 278 279 279
257 260 262 263 264 264 263 261 260 259 258 257 257 260 259 257 255 255 257 260 263 265 267 270 272 274 275 276 277 279 280 280 281 281 281 280 279 279 278 278 278 279 280
257 259 261 263 265 267 268 269 268 265 262 260 258 259 258 256 254 253 254 258 261 263 266 268 269 269 270 272 275 278 281 283 284 284 284 282 281 280 279 279 280 281 283
254 258 261 264 266 268 270 271 272 271 268 264 260 260 259 257 255 253 254 258 261 263 265 265 264 263 265 270 275 280 283 285 286 285 283 281 279 279 279 280 283 285 285
253 255 260 263 266 268 271 273 274 273 271 268 264 263 262 261 260 257 256 257 259 260 260 260 259 261 266 272 278 284 287 289 288 286 284 280 279 278 279 281 283 284 285
255 255 259 263 266 269 271 275 278 277 274 271 269 268 267 266 265 263 260 258 257 257 256 256 258 263 268 274 281 285 289 291 291 289 285 282 279 278 279 281 283 284 286
257 258 260 265 267 269 271 274 276 276 275 273 272 273 272 271 270 269 267 263 260 258 257 256 259 264 269 274 280 284 288 290 290 291 285 282 279 279 281 283 286 288 289
259 260 261 264 267 269 271 272 273 274 274 274 273 273 274 274 275 275 273 270 266 263 261 260 262 264 268 273 279 282 285 286 286 286 282 281 279 280 283 286 290 292 293
258 261 262 263 264 266 268 270 271 273 273 274 273 273 273 275 276 278 278 276 273 270 268 266 266 267 268 271 275 278 281 283 284 282 280 279 279 280 285 289 292 295 296
259 260 261 262 263 264 266 268 269 270 271 273 274 275 275 276 278 280 281 281 279 277 275 274 273 271 271 272 273 276 278 280 282 281 279 278 278 280 284 289 294 297 298
261 259 258 260 261 263 264 266 268 268 270 272 274 275 277 279 281 283 283 282 281 281 281 281 280 277 274 273 273 274 276 278 281 281 279 278 277 280 284 290 294 297 297
259 260 258 258 260 261 263 264 266 268 268 269 271 273 275 278 281 283 283 282 281 282 283 284 283 280 277 275 276 276 277 278 280 282 282 280 279 281 285 290 293 296 296
256 259 259 259 260 261 262 263 265 266 267 267 269 271 273 276 279 281 282 281 280 281 282 283 283 281 279 279 280 279 279 281 283 284 283 282 282 284 288 292 294 296 297
256 258 260 260 261 262 262 263 264 266 267 269 270 271 273 275 278 280 282 281 281 280 281 282 282 281 281 281 282 282 282 284 286 286 285 284 285 288 291 294 295 296 296
255 257 259 261 261 262 262 262 264 265 266 267 270 273 275 277 279 281 283 283 282 280 280 281 281 281 281 282 283 283 283 285 287 287 287 288 289 290 292 294 295 296 295
253 255 257 259 259 261 263 263 264 266 266 267 269 273 275 278 280 282 283 284 282 280 279 280 281 281 281 281 282 283 283 284 286 287 288 289 290 291 292 293 294 294 293
251 253 255 257 257 259 262 263 264 266 267 268 270 273 276 278 279 281 283 283 282 280 279 280 281 282 281 281 282 282 284 285 286 287 289 289 290 291 292 292 292 292 292
252 251 253 255 256 256 259 261 262 264 267 270 272 274 276 278 279 281 282 283 282 280 278 279 281 282 282 281 282 283 283 285 286 288 289 289 290 290 291 291 291 292 292
254 252 251 252 253 254 255 257 261 265 267 269 271 274 275 277 279 281 283 283 282 279 278 279 281 282 282 282 283 284 285 286 286 287 288 290 291 292 292 293 293 293 293
257 255 252 251 251 252 252 255 259 262 264 266 268 271 275 278 280 281 281 281 280 278 278 279 281 282 283 284 285 286 288 288 288 289 290 291 292 293 293 294 294 294 295
257 256 254 253 252 251 251 252 254 257 260 263 266 270 272 275 277 279 280 280 280 279 279 281 283 284 285 286 287 288 289 289 290 291 292 293 293 294 294 293 293 294 295
255 255 254 253 253 251 251 250 252 254 257 260 263 266 269 272 275 278 279 281 281 281 282 283 285 286 287 288 290 290 291 291 292 292 292 292 292 293 293 294 294 295 295
Height
5853 5853 5854 5855 5856 5857 5858 5859 5860 5861 5862 5862 5863 5862 5862 5862 5862 5862 5862 5862 5862 5862 5862 5862 5862 5863 5863 5863 5863 5863 5863 5863 5863 5863 5863 5862 5862 5862 5862 5862 5862 5861 5861
5850 5850 5851 5852 5853 5854 5855 5856 5857 5858 5859 5860 5860 5860 5860 5860 5860 5860 5860 5860 5860 5860 5860 5860 5860 5860 5860 5860 5860 5860 5860 5860 5860 5860 5860 5860 5859 5859 5859 5858 5859 5858 5858
5847 5848 5849 5850 5851 5852 5853 5853 5854 5855 5856 5857 5858 5858 5858 5858 5858 5858 5858 5858 5858 5858 5858 5858 5858 5858 5858 5858 5858 5858 5858 5858 5858 5858 5858 5857 5856 5856 5856 5856 5855 5855 5855
5843 5845 5846 5847 5848 5849 5850 5851 5851 5852 5853 5854 5855 5855 5855 5855 5855 5855 5855 5855 5855 5855 5856 5856 5856 5856 5856 5856 5856 5855 5855 5855 5855 5855 5855 5854 5853 5853 5852 5852 5851 5851 5851
5840 5842 5843 5844 5845 5846 5847 5847 5848 5849 5850 5851 5851 5852 5852 5852 5852 5852 5852 5852 5852 5853 5853 5853 5853 5853 5853 5852 5852 5852 5852 5852 5852 5851 5851 5850 5849 5849 5848 5848 5847 5846 5846
5837 5838 5839 5840 5841 5842 5843 5844 5845 5846 5846 5847 5847 5848 5848 5848 5848 5849 5849 5849 5849 5849 5850 5850 5850 5850 5850 5849 5849 5849 5849 5849 5848 5848 5847 5846 5845 5845 5844 5843 5842 5842 5841
5834 5835 5835 5836 5837 5838 5839 5840 5841 5842 5842 5843 5843 5843 5844 5844 5844 5845 5845 5845 5846 5846 5846 5846 5846 5846 5846 5846 5845 5845 5845 5845 5844 5844 5843 5842 5841 5840 5839 5838 5838 5837 5837
5830 5831 5831 5832 5833 5834 5835 5836 5836 5837 5838 5838 5839 5839 5840 5840 5840 5841 5841 5842 5842 5842 5843 5843 5843 5843 5843 5842 5842 5842 5842 5841 5840 5839 5839 5837 5836 5836 5835 5834 5833 5833 5832
5825 5828 5827 5829 5830 5831 5831 5832 5832 5833 5834 5834 5835 5835 5836 5836 5836 5837 5837 5838 5838 5839 5839 5839 5840 5840 5840 5839 5839 5839 5838 5837 5836 5835 5833 5831 5831 5830 5830 5829 5828 5828 5827
5821 5823 5824 5825 5826 5827 5828 5828 5829 5829 5830 5831 5831 5832 5832 5832 5833 5833 5834 5834 5835 5835 5835 5836 5836 5836 5836 5836 5836 5835 5834 5833 5832 5830 5828 5826 5826 5825 5825 5824 5823 5822 5821
5816 5818 5820 5821 5822 5823 5824 5824 5825 5825 5826 5827 5828 5828 5829 5829 5829 5829 5829 5830 5830 5831 5831 5832 5832 5832 5832 5832 5832 5831 5830 5829 5827 5826 5823 5822 5822 5821 5820 5819 5818 5817 5816
5811 5812 5815 5817 5817 5818 5819 5820 5820 5821 5822 5823 5823 5824 5825 5825 5825 5825 5825 5825 5826 5826 5827 5827 5827 5828 5828 5827 5827 5826 5825 5824 5823 5822 5818 5818 5817 5816 5815 5814 5813 5812 5810
5805 5807 5809 5810 5812 5813 5814 5815 5816 5817 5817 5818 5819 5819 5820 5820 5820 5821 5821 5821 5821 5821 5821 5821 5822 5822 5822 5822 5821 5820 5819 5818 5818 5816 5814 5813 5812 5811 5810 5808 5807 5805 5804
5799 5801 5802 5803 5805 5806 5808 5810 5811 5812 5812 5813 5813 5814 5815 5815 5815 5816 5816 5816 5815 5815 5815 5815 5815 5815 5815 5815 5815 5814 5813 5812 5812 5810 5809 5807 5806 5805 5804 5802 5800 5799 5797
5791 5794 5796 5796 5798 5799 5802 5803 5804 5806 5806 5807 5808 5808 5809 5809 5810 5810 5810 5810 5809 5809 5808 5808 5808 5808 5808 5808 5807 5807 5806 5806 5805 5803 5802 5801 5799 5798 5797 5795 5793 5792 5790
5785 5786 5788 5790 5791 5793 5795 5796 5798 5799 5800 5801 5802 5802 5803 5803 5804 5804 5804 5804 5803 5802 5802 5801 5801 5801 5801 5800 5800 5799 5799 5798 5797 5796 5794 5793 5792 5790 5789 5787 5786 5784 5782
5779 5780 5781 5783 5784 5786 5788 5789 5791 5792 5793 5795 5795 5796 5796 5797 5797 5797 5797 5797 5796 5796 5795 5795 5794 5794 5794 5793 5792 5792 5791 5790 5789 5788 5787 5785 5783 5782 5781 5779 5777 5775 5773
5772 5773 5774 5776 5778 5780 5781 5782 5783 5785 5787 5788 5789 5790 5790 5790 5791 5790 5790 5790 5789 5789 5788 5788 5787 5787 5786 5786 5785 5784 5784 5782 5781 5780 5778 5777 5775 5774 5772 5770 5768 5766 5764
5765 5766 5767 5769 5772 5773 5775 5776 5776 5778 5780 5782 5783 5784 5784 5784 5784 5784 5783 5783 5782 5782 5781 5780 5780 5779 5779 5779 5778 5777 5776 5774 5773 5771 5770 5768 5766 5765 5763 5760 5758 5756 5753
5758 5759 5759 5762 5765 5766 5767 5769 5770 5771 5772 5775 5776 5777 5778 5778 5778 5777 5777 5776 5775 5774 5774 5773 5772 5772 5771 5771 5770 5769 5768 5767 5765 5763 5761 5759 5757 5755 5753 5750 5748 5745 5742
5750 5751 5752 5754 5757 5758 5760 5763 5763 5763 5764 5767 5769 5770 5770 5771 5771 5770 5769 5768 5767 5767 5766 5765 5764 5763 5763 5762 5762 5761 5760 5758 5756 5754 5751 5749 5747 5745 5741 5739 5736 5733 5730
5741 5743 5744 5745 5748 5751 5753 5755 5754 5755 5757 5759 5760 5761 5762 5762 5762 5762 5762 5761 5760 5759 5758 5757 5756 5755 5754 5753 5752 5751 5750 5750 5746 5743 5741 5738 5735 5732 5730 5727 5723 5720 5717
5730 5733 5735 5736 5738 5741 5744 5745 5746 5748 5750 5751 5752 5753 5753 5753 5754 5754 5754 5753 5752 5751 5750 5749 5748 5747 5745 5744 5742 5741 5739 5738 5736 5734 5730 5726 5722 5719 5716 5713 5710 5706 5702
5719 5722 5724 5726 5728 5730 5734 5736 5739 5741 5742 5743 5744 5744 5745 5746 5746 5746 5745 5745 5744 5743 5742 5741 5739 5738 5736 5735 5732 5730 5727 5725 5723 5721 5718 5714 5711 5707 5703 5699 5695 5690 5685
5706 5709 5712 5715 5717 5720 5724 5727 5730 5731 5734 5735 5736 5737 5737 5738 5738 5738 5737 5736 5736 5735 5733 5732 5730 5728 5726 5725 5722 5720 5716 5713 5710 5708 5706 5703 5698 5694 5690 5686 5682 5677 5672
5692 5695 5699 5702 5705 5709 5713 5716 5719 5722 5725 5726 5727 5728 5729 5730 5730 5730 5729 5728 5727 5726 5725 5723 5721 5719 5716 5714 5711 5708 5705 5701 5698 5695 5693 5690 5687 5682 5677 5671 5667 5662 5657